This demonstration page uses our WeatherBlox Daily Observations layout. Learn more.

41.55636, -103.73856

Hourly Observations for April 6, 2015

Temp ( °F °C ) Dew Point ( °F °C ) Humidity (%) Winds ( mph kmh ) Pressure ( in mb ) Visibility ( mi km ) Precip ( " mm )
12:53 am 00:53 Clear 45 7.2 25 -3.9 46 46 NNW 8 13 29.57 1001 10 16.0934 0 0
1:53 am 01:53 Clear 41 5 24 -4.4 51 51 NW 6 9 29.6 1002 10 16.0934 0 0
2:53 am 02:53 Clear 41 5 26 -3.3 55 55 N 13 20 29.62 1003 10 16.0934 0 0
3:53 am 03:53 Clear 38 3.3 26 -3.3 62 62 N 10 17 29.65 1004 10 16.0934 0 0
4:53 am 04:53 Clear 35 1.7 26 -3.3 70 70 Calm 29.68 1005 10 16.0934 0 0
5:53 am 05:53 Clear 32 0 25 -3.9 75 75 N 7 11 29.71 1006 10 16.0934 0 0
6:53 am 06:53 Sunny 31 -0.6 23 -5 72 72 VRB 7 11 29.75 1007 10 16.0934 0 0
7:53 am 07:53 Sunny 34 1.1 24 -4.4 67 67 N 6 9 29.77 1008 10 16.0934 0 0
8:53 am 08:53 Sunny 38 3.3 25 -3.9 60 60 VRB 3 6 29.78 1009 10 16.0934 0 0
9:53 am 09:53 Sunny 42 5.6 26 -3.3 53 53 VRB 3 6 29.79 1009 10 16.0934 0 0
10:53 am 10:53 Sunny 47 8.3 27 -2.8 46 46 Calm 29.77 1008 10 16.0934 0 0
11:53 am 11:53 Sunny 52 11.1 29 -1.7 41 41 E 9 15 29.77 1008 10 16.0934 0 0
12:53 pm 12:53 Sunny 56 13.3 29 -1.7 36 36 E 7 11 29.74 1007 10 16.0934 0 0
1:53 pm 13:53 Sunny 61 16.1 30 -1.1 31 31 E 15 24 29.72 1006 10 16.0934 0 0
2:53 pm 14:53 Sunny 61 16.1 29 -1.7 30 30 ESE 13 20 29.7 1006 10 16.0934 0 0
3:53 pm 15:53 Sunny 64 17.8 29 -1.7 27 27 E 17 28 29.67 1005 10 16.0934 0 0
4:53 pm 16:53 Sunny 64 17.8 29 -1.7 27 27 E 18 30 29.68 1005 10 16.0934 0 0
5:53 pm 17:53 Sunny 62 16.7 30 -1.1 30 30 ENE 18 30 29.69 1006 10 16.0934 0 0
6:53 pm 18:53 Sunny 58 14.4 30 -1.1 35 35 E 20 31 29.7 1006 10 16.0934 0 0
7:53 pm 19:53 Clear 50 10 30 -1.1 46 46 NE 20 31 29.75 1008 10 16.0934 0 0
8:53 pm 20:53 Clear 40 4.4 30 -1.1 68 68 E 18 30 29.82 1010 10 16.0934 0 0
9:53 pm 21:53 Clear 36 2.2 31 -0.6 82 82 ENE 17 28 29.86 1011 10 16.0934 0 0
10:53 pm 22:53 Mostly Cloudy 38 3.3 33 0.6 83 83 NE 18 30 29.86 1011 10 16.0934 0 0
11:04 pm 23:04 Cloudy 37 3 34 1 87 87 NE 16 26 29.91 1013 10 16.0934 0 0
11:53 pm 23:53 Cloudy 38 3.3 34 1.1 86 86 ENE 7 11 29.88 1012 10 16.0934 0 0

Powered by AerisWeather